When you browse on this site, cookies collect data to enhance your experience and personalize the content and advertising you see.
Visit our Privacy Policy to learn more. By continuing to use the site, you agree to this use of cookies and data.
  • In Hungary
  • List of Countries
  • For 7 days
  • Water Temperature
  • Satellite Maps
  • Weather Map
  • News
  • Weather Widgets
  • user-avatar
    Login

    Hourly Weather Kopczysko

    Today, 18 November, Sunday

    Time Temperature Precipitation Wind Pressure Humidity
    00:00 -3°C° 0 mm 2 mps 742 mmHg 62%
    01:00 -3°C° 0 mm 2 mps 741 mmHg 66%
    02:00 -3°C° 0 mm 2 mps 741 mmHg 67%
    03:00 -3°C° 0 mm 2 mps 740 mmHg 67%
    04:00 -1°C° 0 mm 1 mps 740 mmHg 68%
    05:00 -1°C° 0 mm 1 mps 740 mmHg 69%
    06:00 -1°C° 0 mm 1 mps 739 mmHg 70%
    07:00 -1°C° 0 mm 1 mps 739 mmHg 69%
    08:00 0°C° 0 mm 1 mps 739 mmHg 64%
    09:00 +1°C° 0 mm 1 mps 738 mmHg 60%
    10:00 +1°C° 0 mm 2 mps 738 mmHg 55%
    11:00 +2°C° 0 mm 2 mps 738 mmHg 54%
    12:00 +3°C° 0 mm 2 mps 737 mmHg 53%
    13:00 +2°C° 0 mm 2 mps 736 mmHg 56%
    14:00 +1°C° 0.1 mm 2 mps 736 mmHg 59%
    15:00 +1°C° 0.1 mm 2 mps 735 mmHg 61%
    16:00 +1°C° 0.1 mm 1 mps 735 mmHg 63%
    17:00 +1°C° 0.1 mm 1 mps 734 mmHg 63%
    18:00 +1°C° 0.1 mm 1 mps 734 mmHg 64%
    19:00 0°C° 0.1 mm 1 mps 734 mmHg 64%
    20:00 0°C° 0 mm 1 mps 733 mmHg 66%
    21:00 0°C° 0 mm 1 mps 733 mmHg 68%
    22:00 -2°C° 0 mm 2 mps 733 mmHg 70%
    23:00 -3°C° 0 mm 2 mps 733 mmHg 72%

    Tomorrow, 19 November, Monday

    Time Temperature Precipitation Wind Pressure Humidity
    00:00 -3°C° 0 mm 2 mps 732 mmHg 74%
    01:00 -3°C° 0 mm 2 mps 732 mmHg 75%
    02:00 -3°C° 0 mm 2 mps 732 mmHg 76%
    03:00 -3°C° 0 mm 2 mps 732 mmHg 78%
    04:00 -3°C° 0 mm 2 mps 731 mmHg 79%
    05:00 -3°C° 0 mm 2 mps 731 mmHg 80%
    06:00 -4°C° 0 mm 2 mps 731 mmHg 80%
    07:00 -5°C° 0 mm 3 mps 731 mmHg 81%
    08:00 -4°C° 0 mm 3 mps 731 mmHg 76%
    09:00 -2°C° 0 mm 3 mps 732 mmHg 70%
    10:00 -2°C° 0 mm 4 mps 732 mmHg 65%
    11:00 -2°C° 0 mm 4 mps 732 mmHg 64%
    12:00 -1°C° 0 mm 4 mps 732 mmHg 64%
    13:00 -1°C° 0 mm 4 mps 732 mmHg 64%
    14:00 -1°C° 0 mm 4 mps 732 mmHg 67%
    15:00 -1°C° 0 mm 4 mps 732 mmHg 70%
    16:00 -1°C° 0 mm 3 mps 732 mmHg 73%
    17:00 -1°C° 0 mm 3 mps 732 mmHg 75%
    18:00 -2°C° 0 mm 3 mps 732 mmHg 78%
    19:00 -2°C° 0 mm 3 mps 732 mmHg 80%
    20:00 -2°C° 0 mm 3 mps 733 mmHg 81%
    21:00 -2°C° 0 mm 3 mps 733 mmHg 83%
    22:00 -2°C° 0 mm 3 mps 733 mmHg 84%
    23:00 -2°C° 0 mm 3 mps 733 mmHg 84%

    Day after tomorrow, 20 November, Tuesday

    Time Temperature Precipitation Wind Pressure Humidity
    00:00 -2°C° 0 mm 3 mps 733 mmHg 84%
    01:00 -2°C° 0 mm 3 mps 732 mmHg 84%
    02:00 -2°C° 0 mm 3 mps 732 mmHg 85%
    03:00 -2°C° 0 mm 3 mps 732 mmHg 86%
    04:00 -4°C° 0 mm 3 mps 732 mmHg 88%
    05:00 -2°C° 0 mm 3 mps 731 mmHg 87%
    06:00 -3°C° 0 mm 4 mps 731 mmHg 87%
    07:00 -3°C° 0 mm 4 mps 731 mmHg 87%
    08:00 -2°C° 0 mm 4 mps 731 mmHg 83%
    09:00 -2°C° 0 mm 4 mps 731 mmHg 80%
    10:00 -1°C° 0 mm 5 mps 730 mmHg 76%
    11:00 0°C° 0 mm 5 mps 730 mmHg 72%
    12:00 +1°C° 0 mm 5 mps 729 mmHg 68%
    13:00 +2°C° 0 mm 5 mps 729 mmHg 65%
    14:00 +1°C° 0.3 mm 5 mps 729 mmHg 69%
    15:00 +1°C° 0.3 mm 4 mps 729 mmHg 73%
    16:00 0°C° 0.3 mm 4 mps 729 mmHg 77%
    17:00 0°C° 0.6 mm 4 mps 729 mmHg 81%
    18:00 0°C° 0.6 mm 4 mps 729 mmHg 84%
    19:00 0°C° 0.6 mm 3 mps 729 mmHg 88%
    20:00 0°C° 0.2 mm 3 mps 729 mmHg 89%
    21:00 0°C° 0.2 mm 3 mps 729 mmHg 90%
    22:00 0°C° 0.2 mm 3 mps 729 mmHg 91%
    23:00 +1°C° 0 mm 2 mps 729 mmHg 91%

    21 November, Wednesday

    Time Temperature Precipitation Wind Pressure Humidity
    00:00 +1°C° 0 mm 2 mps 730 mmHg 92%
    01:00 +1°C° 0 mm 2 mps 730 mmHg 92%
    02:00 +1°C° 0 mm 2 mps 730 mmHg 92%
    03:00 +1°C° 0 mm 2 mps 730 mmHg 92%
    04:00 +1°C° 0 mm 2 mps 730 mmHg 93%
    05:00 +1°C° 0 mm 2 mps 730 mmHg 92%
    06:00 +1°C° 0 mm 2 mps 730 mmHg 92%
    07:00 +1°C° 0 mm 2 mps 730 mmHg 92%
    08:00 +1°C° 0 mm 3 mps 731 mmHg 91%
    09:00 +1°C° 0 mm 3 mps 731 mmHg 89%
    10:00 +1°C° 0 mm 3 mps 731 mmHg 88%
    11:00 +2°C° 0 mm 3 mps 731 mmHg 87%
    12:00 +2°C° 0 mm 3 mps 731 mmHg 86%
    13:00 +1°C° 0 mm 4 mps 732 mmHg 85%
    14:00 +1°C° 0 mm 4 mps 732 mmHg 87%
    15:00 0°C° 0 mm 4 mps 732 mmHg 88%
    16:00 0°C° 0 mm 4 mps 732 mmHg 89%
    17:00 -1°C° 0 mm 4 mps 732 mmHg 89%
    18:00 -1°C° 0 mm 4 mps 732 mmHg 89%
    19:00 0°C° 0 mm 3 mps 733 mmHg 89%
    20:00 0°C° 0 mm 3 mps 733 mmHg 89%
    21:00 -1°C° 0 mm 3 mps 733 mmHg 89%
    22:00 -1°C° 0 mm 3 mps 733 mmHg 90%
    23:00 -1°C° 0 mm 3 mps 734 mmHg 89%

    22 November, Thursday

    Time Temperature Precipitation Wind Pressure Humidity
    00:00 -1°C° 0 mm 3 mps 734 mmHg 89%
    01:00 -1°C° 0 mm 3 mps 734 mmHg 89%
    02:00 -1°C° 0 mm 3 mps 734 mmHg 90%
    03:00 -1°C° 0 mm 2 mps 734 mmHg 90%
    04:00 -2°C° 0 mm 2 mps 734 mmHg 91%
    05:00 -2°C° 0 mm 2 mps 734 mmHg 91%
    06:00 -2°C° 0 mm 2 mps 735 mmHg 91%
    07:00 -1°C° 0 mm 2 mps 735 mmHg 91%
    08:00 -1°C° 0 mm 2 mps 735 mmHg 88%
    09:00 +1°C° 0 mm 2 mps 736 mmHg 86%
    10:00 +2°C° 0 mm 2 mps 736 mmHg 84%
    11:00 +3°C° 0 mm 2 mps 736 mmHg 83%
    12:00 +3°C° 0 mm 2 mps 736 mmHg 82%
    13:00 +4°C° 0 mm 2 mps 736 mmHg 81%
    14:00 +3°C° 0 mm 2 mps 736 mmHg 84%
    15:00 +2°C° 0 mm 2 mps 736 mmHg 87%
    16:00 +2°C° 0 mm 2 mps 736 mmHg 90%
    17:00 +1°C° 0 mm 2 mps 737 mmHg 91%
    18:00 +1°C° 0 mm 2 mps 737 mmHg 91%
    19:00 +1°C° 0 mm 2 mps 737 mmHg 92%
    20:00 -1°C° 0 mm 2 mps 738 mmHg 92%
    21:00 +1°C° 0 mm 1 mps 738 mmHg 92%
    22:00 +1°C° 0 mm 1 mps 738 mmHg 93%
    23:00 +1°C° 0 mm 1 mps 738 mmHg 93%

    23 November, Friday

    Time Temperature Precipitation Wind Pressure Humidity
    00:00 +1°C° 0 mm 1 mps 738 mmHg 93%
    01:00 +1°C° 0 mm 1 mps 738 mmHg 93%
    02:00 +1°C° 0 mm 1 mps 738 mmHg 93%
    03:00 +1°C° 0 mm 1 mps 738 mmHg 93%
    04:00 +1°C° 0 mm 1 mps 738 mmHg 93%
    05:00 +1°C° 0 mm 1 mps 738 mmHg 93%
    06:00 +1°C° 0 mm 1 mps 738 mmHg 93%
    07:00 +1°C° 0 mm 1 mps 739 mmHg 92%
    08:00 +3°C° 0 mm 1 mps 739 mmHg 89%
    09:00 +4°C° 0 mm 1 mps 739 mmHg 85%
    10:00 +5°C° 0 mm 1 mps 739 mmHg 81%
    11:00 +6°C° 0 mm 1 mps 739 mmHg 80%
    12:00 +7°C° 0 mm 1 mps 739 mmHg 78%
    13:00 +8°C° 0 mm 1 mps 739 mmHg 77%
    14:00 +7°C° 0 mm 1 mps 738 mmHg 81%
    15:00 +6°C° 0 mm 1 mps 738 mmHg 85%
    16:00 +5°C° 0 mm 1 mps 738 mmHg 89%
    17:00 +5°C° 0 mm 1 mps 738 mmHg 90%
    18:00 +5°C° 0 mm 1 mps 737 mmHg 90%
    19:00 +4°C° 0 mm 1 mps 737 mmHg 91%
    20:00 +4°C° 0 mm 1 mps 737 mmHg 91%
    21:00 +4°C° 0 mm 1 mps 737 mmHg 91%
    22:00 +4°C° 0 mm 1 mps 737 mmHg 91%
    23:00 +4°C° 0 mm 1 mps 736 mmHg 91%
    Show more